Total_Precipitation_Accumulation
0.04 0.03 0.03 0.03 0.03 0.02 0.01 0.02 0.01 0.02 0.02 0.02 0.01 0.01 0.02 0.02 0.02 0.01 0.01 0.01 0.01 0.01 0.02 0.01 0.02 0.01 0.00 0.01 0.00 0.00 0.00 0.00 0.00 0.00 0.00 0.00 0.00 0.00 0.00 0.00 0.00 0.00 0.00 0.00 0.00 0.00 0.01 0.00 0.00 0.00 0.01 0.01 0.01 0.01 0.02 0.05 0.18 0.43 0.84 1.76 1.85 2.01 2.60 2.00 2.01 2.28 1.47 1.66 0.85 1.24 1.54 2.04 1.68 1.43 1.21 0.74 0.62 0.85 0.39 0.36 0.29 0.09 0.03 0.01 0.01 0.00 0.01 0.01
0.03 0.02 0.02 0.02 0.01 0.01 0.01 0.01 0.01 0.02 0.02 0.02 0.02 0.02 0.02 0.02 0.02 0.01 0.01 0.01 0.01 0.01 0.01 0.02 0.01 0.00 0.01 0.00 0.00 0.00 0.00 0.00 0.00 0.00 0.00 0.00 0.00 0.00 0.00 0.00 0.00 0.00 0.00 0.00 0.00 0.00 0.00 0.00 0.00 0.00 0.01 0.02 0.00 0.01 0.01 0.13 0.11 0.49 0.84 1.42 2.07 0.99 1.27 1.41 1.60 1.55 1.09 1.37 0.75 0.69 0.76 1.24 1.39 1.33 0.99 1.12 0.62 0.51 0.26 0.27 0.17 0.07 0.03 0.03 0.00 0.00 0.01 0.02
0.03 0.02 0.02 0.01 0.01 0.01 0.01 0.01 0.01 0.01 0.01 0.01 0.02 0.02 0.02 0.02 0.02 0.02 0.01 0.01 0.01 0.01 0.01 0.01 0.01 0.01 0.00 0.01 0.00 0.00 0.00 0.00 0.00 0.00 0.00 0.00 0.00 0.00 0.00 0.00 0.00 0.00 0.00 0.00 0.00 0.00 0.00 0.00 0.00 0.00 0.00 0.02 0.01 0.05 0.14 0.55 0.26 0.46 0.49 1.59 1.20 0.88 0.71 0.78 1.11 1.28 0.79 0.53 0.68 0.81 0.51 0.89 0.85 1.23 0.34 1.31 0.38 0.33 0.44 0.11 0.07 0.06 0.03 0.02 0.01 0.00 0.02 0.02
0.02 0.02 0.01 0.01 0.01 0.01 0.02 0.02 0.02 0.02 0.02 0.02 0.02 0.02 0.02 0.02 0.02 0.01 0.01 0.01 0.00 0.01 0.01 0.01 0.01 0.01 0.01 0.00 0.00 0.00 0.00 0.00 0.00 0.00 0.00 0.00 0.00 0.00 0.00 0.00 0.00 0.00 0.00 0.00 0.00 0.00 0.00 0.00 0.00 0.00 0.00 0.01 0.01 0.03 0.19 0.34 0.16 0.59 0.64 1.18 1.10 0.99 0.59 0.59 1.03 0.74 0.50 0.61 0.51 0.79 0.52 0.80 0.72 0.99 0.67 0.86 0.99 1.10 0.67 0.19 0.12 0.01 0.01 0.01 0.00 0.00 0.00 0.01
0.02 0.02 0.02 0.01 0.01 0.02 0.02 0.02 0.03 0.03 0.03 0.02 0.02 0.02 0.02 0.02 0.02 0.01 0.00 0.01 0.01 0.01 0.01 0.01 0.01 0.01 0.00 0.00 0.00 0.00 0.00 0.00 0.00 0.00 0.00 0.00 0.00 0.00 0.00 0.00 0.00 0.00 0.00 0.00 0.00 0.00 0.00 0.00 0.00 0.00 0.00 0.03 0.01 0.03 0.13 0.27 0.14 0.41 0.74 0.15 0.52 0.86 0.21 0.43 0.72 0.43 0.37 0.54 0.56 0.43 0.46 0.65 0.78 1.23 0.59 0.68 1.48 1.28 0.92 0.06 0.08 0.02 0.01 0.00 0.00 0.00 0.00 0.01
0.01 0.02 0.02 0.01 0.01 0.01 0.01 0.01 0.02 0.02 0.02 0.02 0.02 0.02 0.02 0.01 0.01 0.01 0.01 0.01 0.01 0.01 0.00 0.01 0.01 0.00 0.00 0.00 0.00 0.00 0.00 0.00 0.00 0.00 0.00 0.00 0.00 0.00 0.00 0.00 0.00 0.00 0.00 0.00 0.00 0.00 0.00 0.00 0.00 0.00 0.03 0.02 0.04 0.09 0.28 0.09 0.10 1.10 0.39 0.30 0.40 0.25 0.54 0.56 0.32 0.45 0.33 0.73 0.99 0.80 0.49 0.65 0.72 1.13 1.05 0.65 1.09 1.20 0.85 0.17 0.02 0.00 0.00 0.00 0.00 0.00 0.00 0.00
0.02 0.02 0.01 0.01 0.01 0.01 0.01 0.01 0.01 0.01 0.02 0.02 0.02 0.01 0.02 0.02 0.01 0.01 0.01 0.00 0.01 0.01 0.01 0.01 0.01 0.01 0.00 0.00 0.00 0.00 0.00 0.00 0.00 0.00 0.00 0.00 0.00 0.00 0.00 0.00 0.00 0.00 0.00 0.00 0.00 0.00 0.00 0.00 0.00 0.01 0.02 0.03 0.01 0.04 0.33 0.29 0.05 0.09 0.72 0.28 0.23 0.43 0.24 0.68 0.63 0.36 0.41 0.97 1.20 1.38 0.49 1.06 0.75 1.14 0.92 0.82 0.47 1.01 0.70 0.20 0.11 0.02 0.00 0.00 0.00 0.00 0.00 0.00
0.03 0.02 0.01 0.01 0.01 0.01 0.01 0.01 0.01 0.01 0.01 0.01 0.01 0.02 0.02 0.01 0.01 0.01 0.00 0.00 0.01 0.01 0.01 0.01 0.01 0.00 0.00 0.00 0.00 0.00 0.00 0.00 0.00 0.00 0.00 0.00 0.00 0.00 0.00 0.00 0.00 0.00 0.00 0.00 0.00 0.00 0.00 0.00 0.00 0.00 0.02 0.01 0.02 0.00 0.10 0.04 0.10 0.51 0.18 0.11 0.19 0.20 0.79 0.50 0.66 0.56 0.82 1.39 1.64 1.00 0.68 0.85 1.06 0.77 0.55 0.92 0.49 0.24 0.25 0.15 0.18 0.04 0.00 0.00 0.00 0.00 0.00 0.00
0.02 0.02 0.01 0.01 0.01 0.01 0.01 0.01 0.01 0.01 0.01 0.01 0.01 0.02 0.01 0.01 0.01 0.01 0.01 0.01 0.00 0.01 0.01 0.01 0.00 0.00 0.01 0.00 0.00 0.00 0.00 0.00 0.00 0.00 0.00 0.00 0.00 0.00 0.00 0.00 0.00 0.00 0.00 0.00 0.00 0.00 0.00 0.00 0.00 0.01 0.05 0.03 0.00 0.00 0.00 0.01 0.54 0.12 0.18 0.14 0.31 0.08 0.38 0.43 0.41 0.80 0.60 1.32 1.38 1.06 0.58 1.11 1.26 0.48 0.85 0.76 0.53 0.57 0.37 0.21 0.05 0.01 0.00 0.00 0.00 0.00 0.00 0.00
0.02 0.01 0.01 0.01 0.01 0.01 0.00 0.01 0.01 0.01 0.01 0.01 0.01 0.01 0.01 0.01 0.01 0.01 0.01 0.01 0.01 0.00 0.01 0.00 0.00 0.00 0.00 0.00 0.00 0.00 0.00 0.00 0.00 0.00 0.00 0.00 0.00 0.00 0.00 0.00 0.00 0.00 0.00 0.00 0.00 0.00 0.00 0.00 0.00 0.00 0.00 0.01 0.00 0.00 0.00 0.00 0.38 0.00 0.03 0.19 0.11 0.21 0.60 0.76 0.74 0.87 1.13 1.53 1.35 1.47 1.19 1.34 1.11 1.23 1.31 0.70 0.47 0.20 0.06 0.04 0.07 0.01 0.00 0.00 0.00 0.01 0.00 0.00
0.02 0.01 0.01 0.01 0.01 0.00 0.00 0.01 0.01 0.01 0.01 0.01 0.01 0.01 0.01 0.01 0.01 0.01 0.01 0.01 0.00 0.00 0.01 0.01 0.00 0.00 0.00 0.00 0.00 0.00 0.00 0.00 0.00 0.00 0.00 0.00 0.00 0.00 0.00 0.00 0.00 0.00 0.00 0.00 0.00 0.00 0.00 0.00 0.00 0.00 0.00 0.00 0.00 0.00 0.00 0.00 0.00 0.02 0.01 0.01 0.45 0.47 0.68 0.69 1.65 0.80 0.99 1.18 2.07 2.55 1.68 1.59 1.00 1.22 1.35 0.85 0.40 0.24 0.30 0.10 0.21 0.09 0.01 0.00 0.00 0.00 0.00 0.01
0.01 0.01 0.00 0.00 0.00 0.00 0.00 0.00 0.01 0.01 0.01 0.01 0.01 0.01 0.01 0.01 0.01 0.01 0.01 0.00 0.00 0.00 0.01 0.01 0.00 0.00 0.00 0.00 0.00 0.00 0.00 0.00 0.00 0.00 0.00 0.00 0.00 0.00 0.00 0.00 0.00 0.00 0.00 0.00 0.00 0.00 0.00 0.00 0.00 0.00 0.01 0.00 0.00 0.00 0.00 0.00 0.00 0.01 0.01 0.10 0.16 0.71 1.29 1.20 1.06 1.29 1.08 1.13 1.85 2.57 1.85 1.53 1.35 1.30 0.93 0.28 0.46 0.41 0.40 0.27 0.14 0.07 0.02 0.00 0.01 0.00 0.00 0.00
0.01 0.01 0.00 0.00 0.00 0.01 0.00 0.00 0.00 0.01 0.01 0.01 0.01 0.01 0.01 0.01 0.01 0.00 0.00 0.00 0.00 0.00 0.01 0.00 0.00 0.00 0.00 0.00 0.00 0.00 0.00 0.00 0.00 0.00 0.00 0.00 0.00 0.00 0.00 0.00 0.00 0.00 0.00 0.00 0.00 0.00 0.00 0.00 0.00 0.00 0.00 0.00 0.00 0.00 0.00 0.00 0.00 0.01 0.33 0.41 0.21 0.49 0.49 1.48 1.83 1.39 1.20 1.53 1.69 2.11 1.90 1.71 1.56 1.06 0.71 1.14 0.43 0.24 0.42 0.52 0.26 0.16 0.01 0.00 0.01 0.00 0.01 0.00
0.01 0.00 0.00 0.00 0.00 0.01 0.01 0.01 0.00 0.01 0.01 0.01 0.01 0.01 0.01 0.01 0.00 0.00 0.00 0.00 0.00 0.00 0.00 0.00 0.00 0.00 0.00 0.00 0.00 0.00 0.00 0.00 0.00 0.00 0.00 0.00 0.00 0.00 0.00 0.00 0.00 0.00 0.00 0.00 0.00 0.00 0.00 0.00 0.00 0.00 0.00 0.00 0.00 0.00 0.00 0.00 0.00 0.26 0.07 0.33 0.57 0.38 0.80 0.89 1.33 0.89 1.37 1.46 0.75 0.72 2.07 1.45 2.16 1.11 0.81 0.80 0.69 0.26 0.20 0.20 0.12 0.11 0.02 0.06 0.02 0.00 0.02 0.01
0.01 0.00 0.01 0.01 0.01 0.01 0.01 0.01 0.01 0.01 0.01 0.01 0.01 0.01 0.01 0.00 0.00 0.00 0.00 0.00 0.00 0.00 0.00 0.01 0.00 0.00 0.00 0.00 0.00 0.00 0.00 0.00 0.00 0.00 0.00 0.00 0.00 0.00 0.00 0.00 0.00 0.00 0.00 0.00 0.00 0.00 0.00 0.00 0.00 0.00 0.00 0.00 0.00 0.00 0.00 0.00 0.00 0.13 0.29 0.40 0.21 0.28 0.45 1.14 0.54 0.44 0.98 0.82 0.65 0.50 2.13 1.97 1.42 1.87 0.81 0.79 0.87 0.43 0.21 0.15 0.08 0.06 0.02 0.03 0.04 0.03 0.01 0.02
0.00 0.00 0.00 0.00 0.01 0.01 0.00 0.00 0.00 0.01 0.01 0.01 0.01 0.01 0.00 0.00 0.00 0.00 0.00 0.00 0.00 0.00 0.01 0.00 0.00 0.00 0.00 0.00 0.00 0.00 0.00 0.00 0.00 0.00 0.00 0.00 0.00 0.00 0.00 0.00 0.00 0.00 0.00 0.00 0.00 0.00 0.00 0.00 0.00 0.00 0.00 0.00 0.00 0.00 0.00 0.00 0.01 0.06 0.24 0.41 0.39 0.47 0.36 0.50 0.81 0.40 0.98 0.23 0.90 0.63 1.59 1.05 1.75 0.97 0.75 0.68 1.02 0.71 0.61 0.19 0.10 0.36 0.04 0.03 0.05 0.03 0.03 0.05
0.00 0.00 0.00 0.00 0.01 0.01 0.00 0.00 0.00 0.01 0.01 0.01 0.00 0.00 0.00 0.00 0.00 0.00 0.00 0.00 0.01 0.00 0.00 0.00 0.00 0.00 0.00 0.00 0.00 0.00 0.00 0.00 0.00 0.00 0.00 0.00 0.00 0.00 0.00 0.00 0.00 0.00 0.00 0.00 0.00 0.00 0.00 0.00 0.00 0.00 0.00 0.00 0.00 0.00 0.00 0.01 0.01 0.03 0.06 0.34 0.16 0.26 0.31 0.44 0.32 0.41 0.24 0.30 0.38 0.44 0.78 0.95 0.68 0.63 0.65 0.56 0.99 0.52 0.72 0.67 0.28 0.49 0.12 0.03 0.06 0.02 0.05 0.01
0.00 0.00 0.00 0.00 0.01 0.01 0.01 0.00 0.00 0.01 0.01 0.00 0.00 0.00 0.00 0.00 0.00 0.00 0.00 0.00 0.00 0.00 0.00 0.00 0.00 0.00 0.00 0.00 0.00 0.00 0.00 0.00 0.00 0.00 0.00 0.00 0.00 0.00 0.00 0.00 0.00 0.00 0.00 0.00 0.00 0.00 0.00 0.00 0.00 0.00 0.00 0.00 0.00 0.00 0.02 0.09 0.04 0.05 0.04 0.18 0.28 0.25 0.08 0.27 0.19 0.26 0.12 0.29 0.45 0.44 0.59 0.76 0.89 0.91 0.71 0.40 0.56 0.52 0.43 0.50 0.31 0.18 0.37 0.10 0.05 0.01 0.05 0.01
0.00 0.00 0.00 0.00 0.01 0.01 0.00 0.00 0.00 0.01 0.01 0.00 0.00 0.00 0.00 0.00 0.00 0.00 0.00 0.00 0.00 0.00 0.00 0.00 0.00 0.00 0.00 0.00 0.00 0.00 0.00 0.00 0.00 0.00 0.00 0.00 0.00 0.00 0.00 0.00 0.00 0.00 0.00 0.00 0.00 0.00 0.00 0.00 0.00 0.01 0.03 0.00 0.00 0.00 0.03 0.01 0.00 0.01 0.30 0.18 0.09 0.29 0.35 0.44 0.19 0.13 0.09 0.21 0.41 0.47 0.39 0.75 1.00 0.91 1.11 0.98 1.29 1.15 0.90 0.84 0.82 0.76 0.47 0.23 0.10 0.05 0.03 0.04
0.00 0.00 0.00 0.00 0.00 0.01 0.01 0.00 0.00 0.01 0.01 0.00 0.00 0.00 0.00 0.00 0.00 0.00 0.00 0.00 0.00 0.00 0.00 0.00 0.00 0.00 0.00 0.00 0.00 0.00 0.00 0.00 0.00 0.00 0.00 0.00 0.00 0.00 0.00 0.00 0.00 0.00 0.00 0.00 0.00 0.00 0.00 0.00 0.00 0.00 0.01 0.01 0.00 0.00 0.01 0.00 0.00 0.00 0.03 0.24 0.07 0.33 0.19 0.33 0.07 0.08 0.04 0.15 0.10 0.48 0.28 0.71 0.73 0.87 0.56 0.42 0.83 0.76 1.00 0.77 0.65 0.65 0.42 0.25 0.16 0.08 0.07 0.05
0.00 0.00 0.00 0.00 0.00 0.00 0.00 0.00 0.00 0.00 0.02 0.00 0.00 0.00 0.00 0.00 0.00 0.00 0.00 0.00 0.00 0.00 0.00 0.00 0.00 0.00 0.00 0.00 0.00 0.00 0.00 0.00 0.00 0.00 0.00 0.00 0.00 0.00 0.00 0.00 0.00 0.00 0.00 0.00 0.00 0.00 0.00 0.00 0.00 0.01 0.01 0.00 0.00 0.00 0.00 0.00 0.00 0.02 0.02 0.13 0.22 0.19 0.38 0.39 0.29 0.04 0.01 0.20 0.57 0.53 0.58 0.39 0.51 1.17 0.97 0.72 0.58 0.47 0.63 0.71 0.46 0.29 0.58 0.39 0.18 0.15 0.04 0.04
0.00 0.00 0.00 0.00 0.00 0.00 0.00 0.00 0.00 0.01 0.01 0.00 0.00 0.00 0.00 0.00 0.00 0.00 0.00 0.00 0.00 0.00 0.00 0.00 0.00 0.00 0.00 0.00 0.00 0.00 0.00 0.00 0.00 0.00 0.00 0.00 0.00 0.00 0.00 0.00 0.00 0.00 0.00 0.00 0.00 0.00 0.00 0.00 0.00 0.00 0.00 0.00 0.00 0.00 0.00 0.00 0.00 0.02 0.03 0.12 0.11 0.10 0.25 0.42 0.34 0.05 0.03 0.35 0.42 0.47 0.40 0.60 0.65 0.90 0.71 0.76 0.30 0.22 0.15 0.37 0.58 0.80 0.25 0.25 0.17 0.25 0.13 0.02
0.00 0.00 0.00 0.00 0.00 0.00 0.00 0.00 0.00 0.01 0.00 0.00 0.00 0.00 0.00 0.00 0.00 0.00 0.00 0.00 0.00 0.00 0.00 0.00 0.00 0.00 0.00 0.00 0.00 0.00 0.00 0.00 0.00 0.00 0.00 0.00 0.00 0.00 0.00 0.00 0.00 0.00 0.00 0.00 0.00 0.00 0.00 0.00 0.00 0.00 0.00 0.00 0.00 0.00 0.00 0.00 0.00 0.00 0.02 0.04 0.06 0.19 0.34 0.58 0.33 0.20 0.11 0.11 0.50 0.20 0.33 0.74 1.50 0.87 0.69 0.76 0.99 0.71 0.40 0.40 0.80 0.75 0.28 0.39 0.25 0.21 0.17 0.28
0.00 0.00 0.00 0.00 0.00 0.00 0.00 0.00 0.01 0.00 0.00 0.00 0.00 0.00 0.00 0.00 0.00 0.00 0.00 0.00 0.00 0.00 0.00 0.00 0.00 0.00 0.00 0.00 0.00 0.00 0.00 0.00 0.00 0.00 0.00 0.00 0.00 0.00 0.00 0.00 0.00 0.00 0.00 0.00 0.00 0.00 0.00 0.00 0.00 0.00 0.00 0.00 0.00 0.00 0.00 0.00 0.00 0.00 0.00 0.01 0.03 0.02 0.02 0.01 0.69 0.13 0.14 0.02 0.11 0.28 0.20 0.64 0.74 0.50 0.67 0.71 0.62 0.60 0.73 0.42 0.39 0.91 0.61 0.50 0.14 0.36 0.22 0.14
0.00 0.00 0.00 0.00 0.00 0.00 0.00 0.00 0.00 0.00 0.00 0.00 0.00 0.00 0.00 0.00 0.00 0.00 0.00 0.00 0.00 0.00 0.00 0.00 0.00 0.00 0.00 0.00 0.00 0.00 0.00 0.00 0.00 0.00 0.00 0.00 0.00 0.00 0.00 0.00 0.00 0.00 0.00 0.00 0.00 0.00 0.00 0.00 0.00 0.00 0.00 0.00 0.00 0.00 0.00 0.00 0.00 0.00 0.00 0.00 0.01 0.00 0.00 0.00 0.02 0.09 0.17 0.20 0.06 0.06 0.13 0.44 0.41 0.48 0.33 0.57 0.67 0.36 0.34 0.25 0.18 0.39 0.57 0.80 0.44 0.21 0.25 0.27
0.00 0.00 0.00 0.00 0.00 0.00 0.00 0.00 0.00 0.00 0.00 0.00 0.00 0.00 0.00 0.00 0.00 0.00 0.00 0.00 0.00 0.00 0.00 0.00 0.00 0.00 0.00 0.00 0.00 0.00 0.00 0.00 0.00 0.00 0.00 0.00 0.00 0.00 0.00 0.00 0.00 0.00 0.00 0.00 0.00 0.00 0.00 0.00 0.00 0.00 0.00 0.00 0.00 0.00 0.00 0.00 0.00 0.00 0.00 0.00 0.00 0.01 0.00 0.01 0.01 0.06 0.39 0.20 0.30 0.02 0.45 0.60 0.46 0.58 0.35 0.38 0.36 0.35 0.39 0.27 0.24 0.23 0.23 0.55 0.68 0.42 0.28 0.17
0.00 0.00 0.00 0.00 0.00 0.01 0.00 0.00 0.00 0.00 0.00 0.00 0.00 0.00 0.00 0.00 0.00 0.00 0.00 0.00 0.00 0.00 0.00 0.00 0.00 0.00 0.00 0.00 0.00 0.00 0.00 0.00 0.00 0.00 0.00 0.00 0.00 0.00 0.00 0.00 0.00 0.00 0.00 0.00 0.00 0.00 0.00 0.00 0.00 0.00 0.00 0.00 0.00 0.00 0.00 0.00 0.00 0.00 0.00 0.00 0.00 0.00 0.00 0.00 0.00 0.00 0.07 0.30 0.16 0.06 0.03 0.37 0.35 0.46 0.33 0.19 0.25 0.24 0.39 0.26 0.15 0.24 0.13 0.21 0.47 0.26 0.31 0.41
0.00 0.00 0.00 0.00 0.00 0.02 0.00 0.00 0.00 0.00 0.00 0.00 0.00 0.00 0.00 0.00 0.00 0.00 0.00 0.00 0.00 0.00 0.00 0.00 0.00 0.00 0.00 0.00 0.00 0.00 0.01 0.00 0.00 0.00 0.00 0.00 0.00 0.00 0.00 0.00 0.00 0.00 0.00 0.00 0.00 0.00 0.00 0.00 0.00 0.00 0.00 0.00 0.00 0.00 0.00 0.00 0.00 0.00 0.00 0.00 0.00 0.00 0.00 0.00 0.03 0.04 0.01 0.01 0.33 0.07 0.02 0.08 0.16 0.38 0.23 0.23 0.45 0.41 0.23 0.39 0.31 0.48 0.17 0.18 0.32 0.26 0.20 0.39
0.00 0.00 0.00 0.00 0.00 0.00 0.00 0.00 0.00 0.00 0.00 0.00 0.00 0.00 0.00 0.00 0.00 0.00 0.05 0.03 0.00 0.00 0.00 0.00 0.00 0.00 0.00 0.00 0.00 0.00 0.00 0.00 0.00 0.00 0.00 0.00 0.00 0.00 0.00 0.00 0.00 0.00 0.00 0.00 0.00 0.00 0.00 0.00 0.00 0.00 0.00 0.00 0.00 0.00 0.00 0.00 0.00 0.00 0.00 0.00 0.00 0.00 0.00 0.00 0.00 0.00 0.00 0.01 0.10 0.13 0.04 0.20 0.52 0.21 0.54 0.55 0.38 0.21 0.28 0.36 0.24 0.09 0.21 0.17 0.20 0.10 0.25 0.28
0.00 0.00 0.00 0.00 0.00 0.00 0.00 0.00 0.00 0.00 0.00 0.00 0.00 0.00 0.00 0.00 0.00 0.02 0.01 0.03 0.00 0.00 0.00 0.00 0.00 0.00 0.00 0.00 0.00 0.00 0.00 0.00 0.00 0.00 0.00 0.00 0.00 0.00 0.00 0.00 0.00 0.00 0.00 0.00 0.00 0.00 0.00 0.00 0.00 0.00 0.00 0.00 0.00 0.00 0.00 0.00 0.00 0.00 0.00 0.00 0.00 0.00 0.00 0.00 0.01 0.00 0.03 0.01 0.16 0.20 0.19 0.04 0.57 0.38 0.12 0.29 0.16 0.08 0.17 0.14 0.31 0.14 0.28 0.27 0.09 0.20 0.28 0.20
0.00 0.00 0.00 0.00 0.01 0.00 0.00 0.00 0.00 0.00 0.00 0.00 0.00 0.00 0.00 0.00 0.03 0.02 0.06 0.00 0.00 0.00 0.00 0.00 0.00 0.00 0.00 0.00 0.00 0.00 0.00 0.00 0.00 0.00 0.00 0.00 0.00 0.00 0.00 0.00 0.00 0.00 0.00 0.00 0.00 0.00 0.00 0.00 0.00 0.00 0.00 0.00 0.00 0.01 0.00 0.00 0.00 0.00 0.00 0.00 0.00 0.00 0.01 0.01 0.02 0.01 0.06 0.03 0.02 0.12 0.15 0.05 0.11 0.36 0.10 0.07 0.08 0.07 0.09 0.09 0.12 0.11 0.15 0.06 0.28 0.12 0.12 0.15
0.00 0.00 0.00 0.00 0.00 0.01 0.00 0.00 0.00 0.00 0.00 0.00 0.00 0.00 0.00 0.04 0.01 0.15 0.11 0.00 0.01 0.00 0.00 0.00 0.00 0.00 0.00 0.00 0.00 0.00 0.00 0.00 0.00 0.00 0.00 0.00 0.00 0.00 0.00 0.00 0.00 0.00 0.00 0.00 0.00 0.00 0.00 0.00 0.00 0.00 0.00 0.00 0.00 0.00 0.02 0.00 0.00 0.00 0.00 0.01 0.02 0.05 0.03 0.09 0.21 0.17 0.06 0.13 0.14 0.02 0.18 0.32 0.05 0.31 0.18 0.07 0.08 0.04 0.02 0.04 0.32 0.04 0.05 0.02 0.05 0.04 0.12 0.12
0.00 0.00 0.00 0.00 0.00 0.00 0.00 0.00 0.00 0.00 0.00 0.00 0.00 0.00 0.05 0.20 0.09 0.09 0.03 0.00 0.02 0.00 0.00 0.00 0.01 0.00 0.00 0.00 0.00 0.00 0.00 0.00 0.00 0.00 0.00 0.00 0.00 0.00 0.00 0.00 0.00 0.00 0.01 0.00 0.00 0.00 0.00 0.00 0.00 0.00 0.00 0.00 0.00 0.00 0.01 0.01 0.00 0.00 0.00 0.00 0.00 0.06 0.07 0.04 0.08 0.07 0.07 0.00 0.01 0.15 0.06 0.03 0.25 0.07 0.02 0.03 0.01 0.01 0.00 0.01 0.05 0.04 0.03 0.02 0.07 0.06 0.13 0.13
0.00 0.00 0.00 0.00 0.00 0.00 0.00 0.00 0.00 0.00 0.00 0.00 0.00 0.01 0.03 0.09 0.09 0.01 0.01 0.00 0.00 0.00 0.00 0.01 0.00 0.00 0.00 0.00 0.00 0.00 0.00 0.00 0.00 0.00 0.00 0.00 0.00 0.00 0.00 0.00 0.00 0.00 0.00 0.00 0.00 0.00 0.00 0.00 0.00 0.00 0.00 0.00 0.00 0.00 0.00 0.01 0.00 0.00 0.00 0.00 0.00 0.06 0.03 0.08 0.11 0.08 0.03 0.08 0.04 0.00 0.01 0.03 0.10 0.38 0.05 0.20 0.01 0.00 0.00 0.01 0.02 0.01 0.01 0.02 0.03 0.03 0.11 0.13
0.00 0.00 0.00 0.00 0.00 0.00 0.00 0.00 0.00 0.00 0.00 0.00 0.00 0.10 0.11 0.04 0.02 0.05 0.03 0.00 0.00 0.00 0.00 0.00 0.01 0.00 0.00 0.00 0.00 0.00 0.00 0.00 0.00 0.00 0.00 0.00 0.00 0.00 0.00 0.00 0.00 0.00 0.00 0.00 0.00 0.00 0.00 0.00 0.00 0.00 0.00 0.00 0.00 0.00 0.00 0.00 0.00 0.00 0.00 0.00 0.00 0.00 0.00 0.05 0.08 0.06 0.03 0.08 0.02 0.01 0.03 0.15 0.34 0.29 0.14 0.19 0.04 0.01 0.00 0.00 0.02 0.05 0.03 0.05 0.07 0.08 0.10 0.15
0.00 0.00 0.00 0.00 0.00 0.00 0.00 0.00 0.00 0.00 0.00 0.00 0.06 0.06 0.04 0.01 0.03 0.00 0.00 0.00 0.00 0.02 0.00 0.00 0.01 0.00 0.00 0.01 0.00 0.01 0.00 0.01 0.00 0.00 0.00 0.00 0.00 0.01 0.00 0.00 0.00 0.00 0.00 0.00 0.02 0.00 0.00 0.00 0.00 0.00 0.00 0.00 0.00 0.00 0.00 0.00 0.00 0.00 0.00 0.00 0.00 0.00 0.00 0.03 0.00 0.00 0.00 0.01 0.19 0.08 0.02 0.04 0.01 0.05 0.13 0.50 0.56 0.07 0.01 0.01 0.00 0.04 0.03 0.01 0.03 0.07 0.09 0.15
0.00 0.00 0.00 0.00 0.00 0.00 0.00 0.00 0.00 0.00 0.00 0.00 0.11 0.13 0.05 0.00 0.00 0.00 0.00 0.00 0.00 0.00 0.00 0.00 0.03 0.03 0.01 0.01 0.00 0.00 0.00 0.00 0.00 0.00 0.02 0.00 0.00 0.00 0.00 0.00 0.00 0.00 0.00 0.00 0.00 0.00 0.00 0.00 0.00 0.00 0.00 0.00 0.00 0.00 0.00 0.00 0.00 0.00 0.00 0.00 0.00 0.00 0.00 0.00 0.02 0.03 0.01 0.04 0.10 0.01 0.07 0.10 0.06 0.35 0.09 0.17 0.28 0.15 0.07 0.02 0.04 0.01 0.03 0.04 0.04 0.08 0.04 0.22
0.00 0.00 0.00 0.00 0.00 0.00 0.00 0.00 0.00 0.00 0.00 0.08 0.07 0.02 0.00 0.02 0.00 0.00 0.00 0.00 0.00 0.00 0.01 0.01 0.00 0.00 0.00 0.00 0.02 0.00 0.00 0.00 0.02 0.00 0.01 0.00 0.01 0.00 0.00 0.00 0.00 0.00 0.00 0.00 0.00 0.00 0.00 0.00 0.00 0.00 0.00 0.00 0.00 0.00 0.00 0.00 0.00 0.00 0.00 0.00 0.00 0.00 0.00 0.00 0.00 0.08 0.00 0.01 0.07 0.01 0.01 0.05 0.03 0.26 0.06 0.11 0.13 0.09 0.13 0.04 0.11 0.06 0.03 0.06 0.06 0.11 0.17 0.25
0.00 0.00 0.00 0.00 0.00 0.00 0.00 0.00 0.00 0.00 0.03 0.13 0.15 0.03 0.03 0.02 0.00 0.00 0.00 0.00 0.00 0.00 0.02 0.00 0.00 0.00 0.00 0.00 0.00 0.00 0.01 0.01 0.00 0.00 0.01 0.00 0.01 0.00 0.00 0.00 0.00 0.00 0.00 0.00 0.00 0.00 0.00 0.00 0.00 0.00 0.00 0.00 0.00 0.00 0.00 0.00 0.00 0.00 0.00 0.00 0.00 0.00 0.00 0.00 0.00 0.05 0.01 0.11 0.00 0.22 0.07 0.12 0.07 0.20 0.05 0.05 0.19 0.06 0.02 0.03 0.03 0.08 0.07 0.06 0.06 0.04 0.08 0.21
0.00 0.00 0.00 0.00 0.00 0.00 0.00 0.00 0.00 0.03 0.16 0.20 0.06 0.04 0.01 0.00 0.00 0.00 0.00 0.00 0.00 0.00 0.03 0.01 0.00 0.00 0.00 0.00 0.00 0.00 0.01 0.01 0.01 0.01 0.01 0.01 0.00 0.00 0.00 0.00 0.00 0.00 0.00 0.00 0.00 0.00 0.00 0.00 0.00 0.00 0.00 0.00 0.00 0.00 0.00 0.00 0.00 0.00 0.00 0.00 0.00 0.00 0.00 0.00 0.00 0.01 0.01 0.03 0.03 0.06 0.12 0.23 0.43 0.71 0.37 0.44 0.30 0.28 0.36 0.29 0.25 0.08 0.05 0.04 0.02 0.02 0.03 0.07
0.00 0.00 0.00 0.00 0.00 0.00 0.00 0.01 0.03 0.13 0.11 0.12 0.01 0.03 0.00 0.00 0.00 0.00 0.00 0.00 0.00 0.00 0.00 0.04 0.00 0.01 0.00 0.00 0.00 0.00 0.01 0.02 0.01 0.02 0.01 0.02 0.00 0.00 0.00 0.00 0.00 0.00 0.00 0.00 0.00 0.00 0.00 0.00 0.00 0.00 0.00 0.00 0.00 0.00 0.00 0.00 0.00 0.00 0.00 0.00 0.00 0.00 0.00 0.00 0.00 0.00 0.00 0.00 0.00 0.03 0.09 0.07 0.23 0.36 0.94 0.66 0.58 0.74 0.71 0.28 0.13 0.20 0.03 0.02 0.02 0.02 0.08 0.10
0.00 0.02 0.00 0.00 0.00 0.00 0.00 0.04 0.04 0.02 0.06 0.12 0.08 0.01 0.01 0.00 0.00 0.01 0.00 0.00 0.01 0.01 0.00 0.00 0.00 0.03 0.00 0.00 0.00 0.00 0.01 0.02 0.03 0.03 0.02 0.02 0.01 0.00 0.00 0.00 0.00 0.00 0.00 0.00 0.00 0.00 0.00 0.00 0.00 0.01 0.00 0.00 0.00 0.00 0.00 0.00 0.00 0.00 0.01 0.02 0.00 0.00 0.00 0.00 0.00 0.00 0.00 0.00 0.01 0.08 0.05 0.30 0.07 0.08 0.20 0.16 0.92 0.86 0.58 0.33 0.19 0.43 0.16 0.06 0.05 0.09 0.06 0.13
0.00 0.00 0.00 0.00 0.00 0.00 0.00 0.05 0.01 0.03 0.05 0.05 0.00 0.04 0.02 0.01 0.03 0.06 0.03 0.02 0.12 0.07 0.03 0.01 0.01 0.04 0.00 0.00 0.00 0.00 0.00 0.01 0.03 0.06 0.04 0.03 0.02 0.00 0.00 0.00 0.00 0.00 0.00 0.00 0.00 0.00 0.00 0.01 0.01 0.00 0.00 0.00 0.00 0.00 0.00 0.00 0.00 0.00 0.00 0.00 0.00 0.00 0.00 0.00 0.00 0.00 0.00 0.01 0.00 0.10 0.07 0.17 0.08 0.19 0.35 0.37 0.27 0.60 0.84 0.52 0.11 0.31 0.22 0.09 0.09 0.09 0.06 0.09
0.00 0.00 0.00 0.00 0.00 0.00 0.03 0.08 0.03 0.02 0.02 0.01 0.02 0.02 0.01 0.04 0.01 0.06 0.09 0.07 0.05 0.03 0.06 0.03 0.07 0.07 0.04 0.00 0.00 0.01 0.00 0.05 0.05 0.03 0.05 0.05 0.04 0.01 0.00 0.00 0.00 0.00 0.00 0.00 0.00 0.01 0.01 0.00 0.01 0.01 0.03 0.01 0.00 0.00 0.00 0.00 0.00 0.00 0.00 0.00 0.00 0.00 0.00 0.00 0.00 0.00 0.01 0.00 0.08 0.06 0.07 0.10 0.32 0.02 0.26 0.57 0.29 0.71 0.73 0.90 0.93 0.40 0.27 0.39 0.59 0.74 0.56 0.24
0.02 0.01 0.00 0.00 0.00 0.00 0.13 0.01 0.03 0.05 0.02 0.04 0.03 0.02 0.04 0.04 0.04 0.02 0.02 0.06 0.05 0.07 0.06 0.08 0.09 0.05 0.05 0.01 0.00 0.00 0.00 0.02 0.05 0.03 0.04 0.05 0.04 0.03 0.01 0.01 0.00 0.00 0.00 0.00 0.00 0.00 0.01 0.00 0.04 0.06 0.01 0.03 0.01 0.01 0.02 0.03 0.01 0.00 0.00 0.01 0.02 0.00 0.00 0.02 0.00 0.01 0.00 0.02 0.01 0.02 0.20 0.17 0.09 0.19 0.15 0.20 0.15 0.61 1.02 0.31 0.26 0.22 0.15 0.26 0.37 0.29 0.16 0.37
0.01 0.09 0.00 0.00 0.00 0.03 0.03 0.00 0.03 0.02 0.05 0.02 0.02 0.04 0.01 0.07 0.07 0.06 0.03 0.03 0.03 0.05 0.01 0.09 0.02 0.03 0.06 0.03 0.05 0.02 0.02 0.04 0.07 0.12 0.10 0.11 0.07 0.06 0.04 0.02 0.01 0.00 0.00 0.00 0.00 0.00 0.00 0.00 0.00 0.00 0.02 0.06 0.16 0.24 0.00 0.00 0.01 0.03 0.02 0.00 0.05 0.01 0.01 0.00 0.01 0.01 0.01 0.03 0.05 0.03 0.04 0.12 0.08 0.17 0.09 0.22 1.00 0.37 0.36 0.16 0.20 0.26 0.14 0.10 0.10 0.17 0.22 0.21
0.16 0.07 0.00 0.06 0.01 0.05 0.02 0.04 0.04 0.06 0.09 0.07 0.05 0.02 0.03 0.04 0.01 0.05 0.05 0.07 0.10 0.08 0.06 0.05 0.10 0.03 0.13 0.08 0.15 0.06 0.04 0.06 0.06 0.08 0.11 0.09 0.09 0.06 0.06 0.04 0.02 0.01 0.01 0.00 0.01 0.00 0.00 0.02 0.00 0.00 0.00 0.00 0.00 0.00 0.00 0.00 0.00 0.00 0.00 0.00 0.01 0.02 0.00 0.05 0.03 0.03 0.02 0.01 0.01 0.00 0.01 0.07 0.09 0.09 0.08 0.09 0.20 0.20 0.32 0.14 0.12 0.13 0.09 0.09 0.07 0.07 0.12 0.25
0.19 0.08 0.04 0.40 0.16 0.07 0.03 0.05 0.08 0.15 0.10 0.09 0.06 0.15 0.08 0.05 0.02 0.05 0.02 0.05 0.07 0.13 0.09 0.19 0.21 0.14 0.15 0.15 0.05 0.15 0.10 0.08 0.08 0.15 0.12 0.15 0.08 0.12 0.09 0.07 0.04 0.05 0.02 0.01 0.01 0.01 0.01 0.01 0.01 0.00 0.00 0.00 0.01 0.01 0.00 0.00 0.00 0.00 0.00 0.00 0.00 0.00 0.00 0.00 0.00 0.00 0.01 0.04 0.08 0.10 0.04 0.03 0.04 0.07 0.08 0.05 0.09 0.08 0.09 0.11 0.48 0.07 0.05 0.04 0.05 0.05 0.06 0.12
0.07 0.08 0.03 0.10 0.28 0.17 0.14 0.07 0.02 0.08 0.06 0.05 0.06 0.12 0.12 0.05 0.04 0.04 0.02 0.04 0.07 0.15 0.12 0.28 0.18 0.13 0.11 0.10 0.10 0.16 0.14 0.15 0.17 0.12 0.18 0.15 0.11 0.13 0.13 0.14 0.07 0.05 0.04 0.05 0.02 0.05 0.01 0.01 0.02 0.02 0.00 0.00 0.00 0.00 0.00 0.00 0.00 0.01 0.02 0.04 0.02 0.00 0.00 0.00 0.00 0.00 0.00 0.01 0.01 0.01 0.11 0.13 0.24 0.25 0.17 0.09 0.05 0.01 0.02 0.02 0.04 0.36 0.03 0.02 0.02 0.03 0.03 0.04
0.28 0.31 0.77 0.10 0.24 0.17 0.06 0.06 0.05 0.03 0.08 0.12 0.11 0.09 0.10 0.09 0.06 0.03 0.06 0.05 0.16 0.12 0.10 0.12 0.15 0.12 0.12 0.10 0.11 0.14 0.09 0.08 0.19 0.17 0.08 0.09 0.09 0.09 0.17 0.14 0.20 0.15 0.07 0.06 0.03 0.09 0.00 0.04 0.00 0.04 0.04 0.02 0.00 0.00 0.02 0.00 0.00 0.02 0.00 0.00 0.00 0.01 0.00 0.00 0.01 0.00 0.00 0.00 0.03 0.02 0.05 0.21 0.31 0.24 0.23 0.10 0.12 0.10 0.03 0.02 0.03 0.15 0.13 0.01 0.03 0.02 0.02 0.05
0.24 0.46 0.85 0.83 0.47 0.22 0.26 0.15 0.12 0.13 0.11 0.12 0.11 0.19 0.08 0.13 0.17 0.11 0.18 0.04 0.12 0.38 0.20 0.15 0.10 0.11 0.10 0.13 0.14 0.13 0.10 0.04 0.02 0.03 0.04 0.04 0.12 0.13 0.20 0.25 0.15 0.15 0.13 0.11 0.05 0.07 0.00 0.06 0.00 0.03 0.03 0.03 0.00 0.02 0.02 0.01 0.00 0.00 0.01 0.01 0.01 0.00 0.01 0.00 0.01 0.02 0.01 0.03 0.03 0.05 0.14 0.22 0.06 0.31 0.20 0.10 0.03 0.03 0.01 0.01 0.04 0.04 0.21 0.10 0.02 0.01 0.03 0.05
0.74 0.46 0.68 1.22 0.74 0.28 0.19 0.05 0.12 0.30 0.14 0.12 0.27 0.18 0.14 0.23 0.13 0.12 0.16 0.19 0.14 0.32 0.23 0.12 0.12 0.09 0.06 0.08 0.12 0.09 0.06 0.02 0.01 0.00 0.01 0.01 0.02 0.02 0.04 0.07 0.08 0.11 0.17 0.17 0.05 0.09 0.03 0.06 0.09 0.04 0.13 0.03 0.04 0.02 0.03 0.02 0.04 0.03 0.02 0.00 0.00 0.00 0.01 0.01 0.01 0.02 0.01 0.01 0.06 0.05 0.41 0.23 0.28 0.04 0.04 0.10 0.03 0.04 0.03 0.11 0.02 0.02 0.19 0.33 0.38 0.05 0.05 0.04